Hourly Data Report for October 03, 2017

All times are specified in Local Standard Time (LST). Add 1 hour to adjust for Daylight Saving Time where and when it is observed.

EUREKA CLIMATE
NUNAVUT

79°59'21.000" N
85°56'02.000" W
10.00 m
2401199
71613
NEK

Download Data

Hourly Data (October 2017)
Hourly Data Report for October 3, 2017
Temp Definition
°C
Dew Point Temp Definition
°C
Rel Hum Definition
%
Wind Dir Definition
10's deg

Wind Spd Definition
km/h
Visibility Definition
km
Stn Press Definition
kPa
Hmdx Definition


Wind Chill Definition


Weather Definition


TIME
00:00 -16.0 -17.3 90 30 9   101.01   -22 LegendNANA
01:00 -15.5 -16.7 90 30 10   101.02   -22 LegendNANA
02:00 -18.3 -19.9 87 10 4   101.06   -22 LegendNANA
03:00 -19.6 -21.0 88 10 1   101.09   -20 LegendNANA
04:00 -21.8 -23.6 85 10 3   101.12   -25 LegendNANA
05:00 -22.9 -24.9 84 11 4   101.15   -27 LegendNANA
06:00 -26.1 -28.4 82 15 1   101.18   -27 LegendNANA
07:00 -25.4 -27.6 82 11 5   101.19   -30 LegendNANA
08:00 -24.9 -27.1 82 11 6   101.21   -31 LegendNANA
09:00 -25.9 -27.9 83 12 2   101.23   -28 LegendNANA
10:00 -26.2 -28.2 83 12 4   101.26   -30 LegendNANA
11:00 -24.5 -26.2 85 11 3   101.25   -27 LegendNANA
12:00 -25.6 -27.8 82 13 3   101.25   -29 LegendNANA
13:00 -25.9 -27.8 84 11 7   101.27   -33 LegendNANA
14:00 -25.5 -27.6 82 9 2   101.28   -28 LegendNANA
15:00 -27.4 -29.9 80 14 1   101.28   -28 LegendNANA
16:00 -27.4 -29.7 81 13 5   101.31   -33 LegendNANA
17:00 -25.1 -27.2 83 11 12   101.35   -34 LegendNANA
18:00 -24.4 -26.4 84 9 5   101.37   -29 LegendNANA
19:00 -25.4 -27.5 83 4 5   101.37   -30 LegendNANA
20:00 -26.5 -28.7 82 10 6   101.36   -32 LegendNANA
21:00 -27.9 -30.4 79 10 5   101.37   -33 LegendNANA
22:00 -26.5 -28.8 81 12 6   101.38   -32 LegendNANA
23:00 -28.3 -30.9 78 11 1   101.36   -29 LegendNANA

Notes on Data Quality.

Legend

  • E = Estimated
  • M = Missing
  • NA = Not Available
  • ‡ = Partner data that is not subject to review by the National Climate Archives
Date modified: